BEIDOU-2 IGSO-7 (C16)

Last updated on Sat Aug 15 2026 00:03:26 GMT+0000 (Coordinated Universal Time)

1 43539U 18057A 26225.77103038 -.00000153 00000+0 00000+0 0 9999 2 43539 55.2150 162.5753 0108288 237.2900 311.5768 1.00286476 29706
UTC large
Height (km)
Speed (km/s)
/
Latitude / Longitude
Inclination (degrees)
Orbital Period (minutes)
Azimuth
Elevation
Range (km)
Doppler Factor

Next 0 passes for location: London (51.5072 / 0.1276)

No passes found over London.
BEIDOU-2 IGSO-7 (C16)